STARLINK-1280, 45388

Orbit data source: Space-Track

STARLINK-1280, 45388 is a payload satellite owned by SpaceX/Seattle (US) in LEO that was launched on Wed, 18 Mar 2020 UTC via an FALCON 9 launch vehicle from the Air Force Eastern Test Range (AFETR). Payload-class satellites include a variety of spacecraft equipped with specific instruments for various scientific and technological missions. These include communications satellites like Starlink; space stations such as the ISS; scientific satellites like the Hubble; Earth observation satellites from companies like Planet Labs, Umbra, and HawkEye 360; GPS; miniature CubeSats for education and research; and military/defense satellites.

Loading next visibility...
Identifier
45388, 2020-019AE
Orbit
LEO
Country
Flag of USUS
Related business
Manufacturer
SpaceX/Seattle
Mission
Partially operational Commercial Communications
Bus & Motor
STARLINK, Unknown motor
Mass
260 kg wet, ~248 kg dry
Launch date (UTC)
2020-03-18 (6 years ago)
Launch vehicle
FALCON 9
Launch site
Air Force Eastern Test Range (AFETR)
Object type
Payload
Rocket body
Debris
Shape & HBR
Box + 1 Pan, 10.1 m
Radar Cross Section
13.562 m², Large (>1 m²)

Expand to show TLE details & history
Last TLE update: 12 hours ago

TLE from 12 hours ago
0 STARLINK-1280
1 45388U 20019AE  26163.81091799  .00118034  00000-0  53239-3 0  9994
2 45388  53.0359  10.5285 0000235 305.0727  55.0273 15.83202646345304
Epoch: 2026-06-12T19:27Z
TLE epoch observation values (Epoch: 2026-06-12T19:27:43.314Z)
Latitude
-0.00001°
Longitude
177.463°
Altitude
322.207 km
Speed
7.716 km/s
True Right ascension
00h 42m 06s
True Declination
0° 00' 00"
Sunlit
Object was in daylight at epoch
Visualization orbit readout
Latitude
Unknown
Longitude
Unknown
Altitude
Unknown
Speed
Unknown
Apparent Right ascension
Unknown
Apparent Declination
Unknown
Sunlit
N/A
Visualization observer readout
Local Sidereal Time
17:42:02
Azimuth
Unknown
Elevation
Unknown
Doppler factor
Unknown
Orbital elements
Apogee altitude
321.831 km
Perigee altitude
321.516 km
Semi-major axis
6,699.81 km
Eccentricity
0.00002
Inclination
53.0359°
RAAN
10.5285°
Arg. of periapsis
305.0727°
True anomaly
55.02951°
Mean anomaly
55.0273°
Eccentric anomaly
55.0284°
Mean motion
3.95776 °/min
Orbital period
90.96 mins
BSTAR
0.00053239
Loading maneuver chart data...
Computing Atmospheric mass density...

Documentation

Showing up to 5 results
|